DELTA 1 DEB, 7065

Orbit data source: Space-Track

DELTA 1 DEB, 7065 is space debris in SSO originally from a launch on Tue, 06 Nov 1973 UTC launched from the Air Force Western Test Range (AFWTR). Debris objects in space refer to the collection of defunct objects orbiting the Earth. Examples of debris include non-operational satellites, rocket bodies, and fragments generated from explosions, collisions, or faulty payload assembly.

Loading next visibility...
Identifier
7065, 1973-086BH
Orbit
SSO
Country
Flag of USUS
Related business
Manufacturer
Unknown
Mission
Spacecraft
Bus & Motor
Unknown
Mass
Unknown
Launch date (UTC)
1973-11-06 (52 years ago)
Launch vehicle
Unknown
Launch site
Air Force Western Test Range (AFWTR)
Object type
Payload
Rocket body
Debris
Shape & HBR
Unknown shape, 0.1 m
Radar Cross Section
Small (<0.1 m²)

Expand to show TLE details & history
Last TLE update: 15 hours ago

TLE from 15 hours ago
0 DELTA 1 DEB
1 07065U 73086BH  26034.44635300  .00000225  00000-0  21550-2 0  9996
2 07065 101.8551  11.6302 0049668 324.1755 188.8178 12.34225065347504
Epoch: 2026-02-03T10:42Z
TLE epoch observation values (Epoch: 2026-02-03T10:42:44.899Z)
Latitude
26.50445°
Longitude
-96.70454°
Altitude
1,572.918 km
Speed
7.066 km/s
True Right ascension
13h 10m 26s
True Declination
26° 22' 53"
Sunlit
Object was in daylight at epoch
Visualization orbit readout
Latitude
Unknown
Longitude
Unknown
Altitude
Unknown
Speed
Unknown
Apparent Right ascension
Unknown
Apparent Declination
Unknown
Sunlit
N/A
Visualization observer readout
Local Sidereal Time
03:13:14
Azimuth
Unknown
Elevation
Unknown
Doppler factor
Unknown
Orbital elements
Apogee altitude
1,568.025 km
Perigee altitude
1,489.481 km
Semi-major axis
7,906.89 km
Eccentricity
0.00497
Inclination
101.8551°
RAAN
11.6302°
Arg. of periapsis
324.1755°
True anomaly
188.73109°
Mean anomaly
188.8178°
Eccentric anomaly
188.77439°
Mean motion
3.08699 °/min
Orbital period
116.62 mins
BSTAR
0.002155
Loading maneuver chart data...
Computing Atmospheric mass density...
Loading historical data...
Loading historical data...
Loading historical data...
Loading historical data...
Loading historical data...
Loading historical data...
Loading historical data...

Documentation

Showing up to 5 results
|